Location: Archamps
(46.1365°N, 6.1329°E)
Time: 10:39:40
(UTC+00:00)

CZ-6A DEB - Pass Details

Date: 28 February 2024
Orbit: 823 x 884 km, 98.8° (Epoch: 12 April)

Event Time Altitude Azimuth Distance (km) Brightness Sun altitude
Rises 18:41:35 0° 225° (SW) 3,461 ? -15.0°
Reaches altitude 10° 18:46:26 10° 262° (W) 2,516 ? -15.8°
Maximum altitude 18:47:36 11° 274° (W) 2,469 ? -16.0°
Drops below altitude 10° 18:48:47 10° 287° (WNW) 2,512 ? -16.2°
Sets 18:53:37 0° 325° (NW) 3,438 ? -17.1°
